Location: Kielce
(50.8833°N, 20.6167°E)
Time: 22:31:43
(UTC+02:00)

SR - Pass Details

Date: 21 April 2021
Orbit: 573 x 882 km, 66.7° (Epoch: 09 May)

Event Time Altitude Azimuth Distance (km) Brightness Sun altitude
Rises 06:06:04 0° 149° (SSE) 3,329 ? 4.5°
Reaches altitude 10° 06:10:28 10° 116° (ESE) 2,468 ? 5.2°
Maximum altitude 06:12:04 11° 100° (E) 2,404 ? 5.5°
Drops below altitude 10° 06:13:41 10° 83° (E) 2,508 ? 5.7°
Sets 06:18:15 0° 52° (NE) 3,483 ? 6.4°
